TimePST,TemperatureF,Dew PointF,Humidity,Sea Level PressureIn,VisibilityMPH,Wind Direction,Wind SpeedMPH,Gust SpeedMPH,PrecipitationIn,Events,Conditions,WindDirDegrees,DateUTC
12:15 AM,41.0,41.0,100,30.26,10.0,Calm,Calm,-,N/A,,Overcast,0,2013-01-29 08:15:00
12:35 AM,39.2,39.2,100,30.26,10.0,ENE,3.5,-,N/A,,Overcast,60,2013-01-29 08:35:00
12:55 AM,39.2,39.2,100,30.26,10.0,Calm,Calm,-,N/A,,Overcast,0,2013-01-29 08:55:00
1:15 AM,39.2,39.2,100,30.26,10.0,Calm,Calm,-,N/A,,Overcast,0,2013-01-29 09:15:00
1:35 AM,39.2,39.2,100,30.27,10.0,NNE,4.6,-,N/A,,Overcast,30,2013-01-29 09:35:00
1:55 AM,39.2,39.2,100,30.27,10.0,NE,6.9,-,N/A,,Overcast,40,2013-01-29 09:55:00
2:15 AM,39.2,39.2,100,30.27,10.0,NNE,4.6,-,N/A,,Overcast,30,2013-01-29 10:15:00
2:35 AM,39.2,39.2,100,30.27,10.0,NE,6.9,-,N/A,,Overcast,40,2013-01-29 10:35:00
2:55 AM,39.2,39.2,100,30.27,10.0,NNE,6.9,-,N/A,,Overcast,30,2013-01-29 10:55:00
3:15 AM,39.2,39.2,100,30.27,10.0,NNE,4.6,-,N/A,,Overcast,20,2013-01-29 11:15:00
3:35 AM,39.2,39.2,100,30.27,10.0,NNE,3.5,-,N/A,,Overcast,30,2013-01-29 11:35:00
3:55 AM,39.2,39.2,100,30.27,10.0,ENE,4.6,-,N/A,,Overcast,70,2013-01-29 11:55:00
4:15 AM,37.4,37.4,100,30.27,10.0,Calm,Calm,-,N/A,,Overcast,0,2013-01-29 12:15:00
4:35 AM,35.6,35.6,100,30.27,10.0,Calm,Calm,-,N/A,,Overcast,0,2013-01-29 12:35:00
4:55 AM,35.6,35.6,100,30.27,10.0,SW,3.5,-,N/A,,Overcast,230,2013-01-29 12:55:00
5:15 AM,37.4,37.4,100,30.27,10.0,WSW,3.5,-,N/A,,Overcast,240,2013-01-29 13:15:00
5:35 AM,37.4,37.4,100,30.28,10.0,West,3.5,-,N/A,,Overcast,260,2013-01-29 13:35:00
5:55 AM,37.4,37.4,100,30.29,10.0,Calm,Calm,-,N/A,,Overcast,0,2013-01-29 13:55:00
6:45 AM,35.6,35.6,100,30.30,10.0,Calm,Calm,-,N/A,,Clear,0,2013-01-29 14:45:00
7:45 AM,35.6,35.6,100,30.32,7.0,Calm,Calm,-,N/A,,Clear,0,2013-01-29 15:45:00
8:45 AM,42.8,42.8,100,30.32,7.0,Calm,Calm,-,N/A,,Clear,0,2013-01-29 16:45:00
9:45 AM,46.4,46.4,100,30.32,10.0,Calm,Calm,-,N/A,,Clear,0,2013-01-29 17:45:00
10:45 AM,50.0,44.6,82,30.33,10.0,Calm,Calm,-,N/A,,Clear,0,2013-01-29 18:45:00
11:45 AM,53.6,44.6,72,30.32,10.0,WNW,5.8,-,N/A,,Partly Cloudy,300,2013-01-29 19:45:00
12:45 PM,55.4,44.6,67,30.30,10.0,Calm,Calm,-,N/A,,Clear,0,2013-01-29 20:45:00
1:45 PM,57.2,42.8,59,30.27,10.0,North,9.2,-,N/A,,Clear,350,2013-01-29 21:45:00
2:50 PM,59.0,42.8,55,30.26,10.0,NNW,13.8,-,N/A,,Clear,340,2013-01-29 22:50:00
3:45 PM,57.2,39.2,51,30.26,10.0,NW,11.5,-,N/A,,Clear,320,2013-01-29 23:45:00
4:45 PM,55.4,39.2,54,30.27,10.0,NNW,5.8,-,N/A,,Clear,330,2013-01-30 00:45:00
5:45 PM,51.8,39.2,62,30.27,10.0,Variable,3.5,-,N/A,,Clear,0,2013-01-30 01:45:00
6:45 PM,44.6,42.8,93,30.28,10.0,Calm,Calm,-,N/A,,Clear,0,2013-01-30 02:45:00
7:45 PM,42.8,42.8,100,30.30,10.0,Calm,Calm,-,N/A,,Clear,0,2013-01-30 03:45:00
8:15 PM,42.8,42.8,100,30.30,9.0,Calm,Calm,-,N/A,,Clear,0,2013-01-30 04:15:00
8:35 PM,42.8,42.8,100,30.30,10.0,Calm,Calm,-,N/A,,Clear,0,2013-01-30 04:35:00
8:45 PM,41.0,41.0,100,30.30,10.0,Calm,Calm,-,N/A,,Clear,0,2013-01-30 04:45:00
8:55 PM,41.0,41.0,100,30.30,10.0,Calm,Calm,-,N/A,,Clear,0,2013-01-30 04:55:00
9:15 PM,39.2,39.2,100,30.30,10.0,Calm,Calm,-,N/A,,Clear,0,2013-01-30 05:15:00
9:35 PM,39.2,39.2,100,30.30,10.0,SSE,5.8,-,N/A,,Clear,150,2013-01-30 05:35:00
9:55 PM,39.2,39.2,100,30.30,10.0,ESE,3.5,-,N/A,,Clear,120,2013-01-30 05:55:00
10:35 PM,39.2,39.2,100,30.31,10.0,SE,4.6,-,N/A,,Clear,140,2013-01-30 06:35:00
10:55 PM,39.2,39.2,100,30.31,10.0,SSE,4.6,-,N/A,,Clear,150,2013-01-30 06:55:00
11:15 PM,39.2,39.2,100,30.31,10.0,SSE,4.6,-,N/A,,Clear,150,2013-01-30 07:15:00
11:35 PM,39.2,39.2,100,30.31,10.0,ESE,3.5,-,N/A,,Clear,120,2013-01-30 07:35:00
11:55 PM,37.4,37.4,100,30.31,10.0,ESE,3.5,-,N/A,,Clear,120,2013-01-30 07:55:00